Theta_e
299 290 288 288 289 289 290 290 291 292 291 289 290 289 288 288 290 291 292 292 293 292 290 289 291 290 289 291 293 293 292 292 292 292 293 293 293 294 297 298 300 300 303 305 312 314 318 320 321 322 322 322 323 324 325 326 326 327 326 325 325 327 329 328 329 329 329 327 326 325 326 326 326 328 329 330 330 330 331 330 329 328 328 327 325 325
296 289 289 291 292 292 292 291 291 291 290 290 289 288 287 290 287 291 290 292 292 291 289 289 289 289 290 291 292 292 292 293 293 292 293 294 294 294 295 296 297 298 300 301 304 312 314 318 319 320 321 319 321 323 324 325 326 327 326 326 326 327 328 328 329 329 329 328 328 327 326 325 323 325 327 327 327 328 328 329 329 329 328 327 327 325
289 287 291 294 295 294 293 293 291 290 290 290 288 287 287 287 289 292 291 291 291 291 286 286 288 290 291 290 291 290 294 295 295 295 295 295 294 295 295 295 296 296 301 300 303 308 312 316 318 319 320 321 324 324 325 325 326 326 326 327 326 327 327 328 327 328 328 327 326 326 321 325 320 322 327 327 326 327 327 327 327 328 328 328 328 328
285 288 293 296 295 293 291 291 291 290 292 288 288 286 285 286 287 286 289 291 291 287 287 287 287 288 289 290 292 292 293 293 295 295 295 296 296 296 297 297 297 296 300 301 301 306 310 314 317 317 318 320 321 321 322 323 324 326 325 326 326 326 327 327 326 324 327 326 325 325 323 324 325 322 322 325 324 325 325 325 325 325 327 328 328 328
288 292 295 295 295 293 291 290 289 287 286 287 290 287 286 287 288 285 287 290 291 291 290 286 284 285 285 288 289 293 293 293 294 294 294 294 296 297 298 296 297 297 301 301 300 303 307 310 314 316 318 318 319 319 321 323 324 327 326 326 326 327 327 327 324 324 324 322 321 322 318 318 318 318 320 319 319 322 321 321 320 323 324 326 326 326
290 293 295 294 293 292 293 289 289 289 284 286 290 291 289 289 288 288 288 286 284 284 287 288 279 277 282 285 289 291 290 292 293 292 294 295 295 294 294 296 296 297 300 302 302 303 305 309 310 310 310 313 316 318 319 321 324 325 325 324 325 325 326 326 323 324 324 323 322 320 319 318 317 318 318 321 322 320 320 321 316 318 323 322 322 323
291 293 294 293 293 292 292 290 290 291 284 285 286 294 291 290 289 288 287 286 280 278 286 288 282 276 282 284 286 286 287 290 291 292 293 294 295 295 296 297 298 299 299 299 300 299 300 302 303 304 305 307 311 314 313 312 316 317 320 321 322 324 324 325 323 323 323 323 323 322 322 320 320 319 315 312 313 320 316 317 317 318 318 319 321 320
290 291 292 294 293 291 290 288 292 291 287 284 290 292 291 289 288 287 288 284 281 283 288 287 281 278 279 285 286 287 287 289 289 292 293 294 294 296 296 296 296 297 297 300 299 299 300 301 302 303 303 303 305 304 302 307 311 314 317 319 320 321 321 323 324 322 323 323 322 321 320 318 317 317 316 313 314 313 313 316 316 317 318 318 320 320
291 290 292 292 292 289 289 290 293 293 289 287 292 292 290 290 288 288 288 283 284 284 280 280 286 282 276 282 285 288 289 290 290 292 293 294 293 294 295 296 295 296 296 297 297 297 298 300 300 300 301 301 301 301 303 303 307 310 313 316 316 318 318 318 321 322 320 322 321 321 319 315 314 315 314 310 309 313 311 313 310 312 311 313 314 315
292 292 294 294 292 289 292 291 291 294 290 294 294 294 292 290 289 289 283 285 284 280 276 281 282 277 277 279 283 286 286 286 289 291 293 293 294 293 294 295 297 298 297 296 297 297 298 297 299 299 300 301 301 300 301 300 301 303 307 314 315 315 316 317 318 320 318 317 318 317 315 316 311 313 309 309 309 307 308 308 306 308 309 310 312 313
293 295 294 295 292 293 290 292 293 294 294 294 293 292 288 285 283 281 281 280 281 276 276 279 282 282 277 280 285 286 286 287 290 288 291 293 293 294 294 297 298 298 298 297 297 298 299 298 299 300 301 300 300 300 300 301 301 301 307 310 313 312 312 313 315 316 315 314 315 316 313 314 312 310 311 309 309 306 306 308 307 307 308 308 310 310
291 292 292 292 294 292 293 293 293 295 294 294 289 284 286 283 280 277 279 280 276 269 273 280 282 282 276 277 281 285 285 286 288 289 292 292 293 295 295 296 297 297 298 297 297 297 298 299 298 298 301 301 301 300 300 299 300 301 305 308 309 307 311 310 312 314 313 312 312 311 312 311 311 311 311 309 308 306 307 306 307 307 307 308 307 308
286 288 292 292 295 294 292 290 290 293 293 290 286 286 282 277 276 274 275 275 272 272 280 278 281 282 281 282 285 286 286 285 286 289 292 293 293 293 294 295 295 296 296 296 295 296 296 297 297 297 298 299 300 301 300 301 301 301 303 306 309 308 308 309 308 311 309 308 308 309 310 309 310 310 309 307 307 306 307 306 306 306 307 305 306 303
285 287 290 292 292 293 294 289 285 286 288 287 285 280 278 273 270 268 267 269 270 276 279 280 280 280 280 284 290 292 294 292 288 289 291 293 294 295 295 295 296 295 295 296 296 295 295 296 296 297 299 299 299 299 301 301 302 302 304 304 307 307 305 305 306 308 308 307 308 310 311 310 311 311 311 311 309 306 306 307 307 308 307 304 303 304
279 279 285 289 286 294 293 291 292 289 289 289 286 286 280 277 270 268 270 271 273 274 276 279 277 274 277 282 285 288 290 288 287 289 289 291 293 294 293 293 294 295 295 295 295 297 298 298 298 299 299 299 300 301 302 302 302 304 305 306 306 306 304 307 307 309 310 310 310 311 312 312 313 314 315 312 309 306 305 305 305 304 302 302 301 302
284 282 288 292 291 292 292 294 295 291 289 287 287 287 282 282 280 274 272 272 271 273 275 275 276 277 282 285 287 287 288 290 289 290 291 292 293 292 294 295 296 296 297 296 296 296 297 296 296 297 298 298 298 299 300 302 304 305 306 306 306 307 307 308 308 310 311 310 312 312 312 312 311 310 308 305 305 304 302 302 302 301 301 302 300 300
282 281 288 291 292 290 292 292 293 293 284 287 288 284 284 286 284 277 277 279 274 272 272 273 279 279 283 288 290 288 288 289 288 290 290 291 291 291 293 293 294 296 295 294 296 295 295 294 295 295 295 295 296 296 297 299 303 305 305 306 307 307 308 308 308 310 311 312 311 309 309 309 307 306 304 303 302 301 301 301 301 301 300 300 300 301
283 282 287 287 289 291 291 290 293 290 291 287 283 286 289 290 287 283 276 271 270 270 272 275 277 277 280 278 283 286 286 286 286 287 288 289 289 291 292 293 295 296 296 295 295 294 294 294 294 294 294 294 295 295 296 298 300 304 305 306 308 309 309 309 311 310 310 309 307 306 305 304 303 302 301 301 300 300 300 299 299 298 298 297 298 298
288 280 285 287 289 290 293 293 291 292 292 288 286 292 287 282 281 282 278 271 270 269 267 274 276 276 277 280 282 284 285 287 288 287 286 288 290 291 292 293 293 293 294 294 294 294 294 294 294 294 294 293 294 294 295 297 300 301 302 305 307 307 307 308 308 307 306 305 304 303 301 301 301 300 300 299 298 298 298 296 296 296 296 296 296 296
288 281 283 287 288 289 289 289 285 285 291 293 291 288 289 285 282 280 280 278 277 268 270 271 276 276 280 280 282 286 287 288 289 286 288 289 291 293 294 295 295 294 295 294 294 294 293 293 293 294 295 295 295 295 295 297 298 299 300 302 302 302 303 303 303 303 302 301 300 299 299 298 298 298 298 297 297 296 295 295 295 296 295 294 294 293
284 285 278 284 289 289 284 285 286 288 286 284 284 284 286 285 285 283 284 280 275 269 268 266 270 272 279 284 286 289 289 289 288 288 289 289 290 292 295 296 295 295 294 294 294 293 293 292 292 292 292 293 292 293 294 296 297 297 299 299 299 300 300 300 299 299 298 298 297 297 297 296 296 295 296 295 294 294 294 293 293 293 292 292 291 290
285 284 281 282 283 282 284 289 289 290 290 288 288 286 288 283 281 278 278 283 278 278 273 271 273 274 282 287 288 287 285 285 287 289 290 290 290 292 296 295 295 295 294 294 293 292 292 291 292 291 291 290 293 293 294 295 296 297 297 298 298 298 298 298 298 297 297 296 296 295 295 294 294 294 294 293 293 292 292 291 291 290 290 291 289 289
287 284 283 279 281 283 288 291 289 290 290 290 288 287 288 286 284 279 276 278 280 279 275 271 272 277 285 286 286 287 286 287 286 287 289 289 289 294 296 296 295 295 295 295 293 293 292 292 292 292 292 292 292 293 292 293 295 295 295 296 296 297 296 296 296 296 296 295 294 294 293 292 292 291 291 291 291 291 290 290 289 289 290 290 289 288
292 285 281 282 285 286 288 289 289 290 290 290 288 288 286 286 287 284 280 279 278 277 278 277 274 273 281 286 284 286 285 285 284 286 289 290 292 295 296 295 295 295 294 293 293 292 293 291 290 292 292 293 293 293 293 293 293 293 293 294 294 294 294 295 295 295 294 293 292 292 291 291 290 290 290 290 289 289 288 288 288 287 288 287 287 288
285 283 285 278 277 280 281 285 285 288 289 283 284 286 287 287 286 282 283 281 281 280 279 277 276 277 284 283 285 285 286 287 287 288 290 293 294 296 296 296 296 295 294 294 293 293 291 291 291 293 293 293 292 292 292 292 292 292 292 292 293 293 293 293 293 293 292 291 290 290 290 289 289 289 288 288 287 287 287 286 287 287 287 287 287 286
288 284 285 278 275 274 273 276 279 281 282 284 284 285 287 287 285 284 281 282 278 279 280 277 275 284 286 285 287 286 285 288 287 287 288 293 296 296 295 296 296 295 295 294 293 292 292 293 292 292 291 292 291 292 291 291 291 291 291 291 291 293 292 291 291 290 290 289 289 288 288 287 287 287 287 287 286 286 286 286 286 286 286 285 286 285
285 287 288 285 283 281 283 282 285 287 284 284 285 286 286 288 287 286 283 281 280 280 280 281 284 286 285 286 285 287 286 288 289 288 289 291 294 294 295 296 296 295 294 294 293 293 292 292 292 293 292 292 291 290 291 291 291 291 291 291 290 291 291 290 289 288 288 288 287 287 286 286 286 286 286 286 286 285 285 285 285 285 285 284 284 285
285 285 286 287 287 286 285 285 287 290 286 287 286 285 287 287 286 286 285 282 285 282 280 283 285 284 287 288 285 286 287 286 287 287 288 288 294 295 295 294 294 293 292 293 293 293 293 293 292 291 291 290 290 290 290 289 290 291 291 291 289 289 289 289 288 287 287 287 287 287 286 286 285 285 285 285 285 284 284 284 284 284 283 283 285 285
287 285 285 286 286 286 286 288 289 290 289 288 288 287 286 286 286 285 286 288 286 283 282 286 287 285 288 289 288 289 288 288 289 290 290 289 293 293 294 294 294 294 293 293 294 293 293 293 292 291 290 290 290 290 289 289 289 288 288 288 288 288 287 287 287 287 287 287 287 286 286 285 285 284 284 284 284 284 284 283 283 283 283 283 283 284
288 283 284 286 285 285 285 287 288 288 287 287 287 288 288 287 286 287 287 289 287 285 287 288 287 287 290 290 288 289 288 288 288 287 288 291 294 295 295 294 294 294 294 294 294 294 294 293 291 291 290 290 290 290 289 289 289 289 289 288 288 287 286 286 286 286 286 286 286 285 285 284 284 284 284 284 284 283 283 282 282 282 282 282 281 281
289 282 288 283 282 282 285 286 288 288 287 285 285 287 288 288 288 288 288 288 288 287 288 287 285 285 290 290 288 288 288 289 286 286 289 290 293 294 294 294 294 295 295 295 294 294 294 292 291 291 290 290 290 290 290 289 288 288 287 287 286 286 285 285 286 286 286 285 285 285 284 284 283 283 283 283 283 282 283 282 282 281 281 281 281 282
286 278 284 282 281 279 283 284 286 284 284 284 284 285 286 286 285 287 286 288 286 285 286 285 284 286 291 289 289 291 290 289 288 288 289 289 291 293 294 294 294 295 295 295 294 294 293 292 291 291 291 290 290 290 289 288 287 287 287 286 285 285 285 285 285 285 285 285 284 284 284 283 283 283 282 282 282 282 281 280 280 280 280 281 280 281
285 282 281 280 279 279 282 284 282 282 282 282 284 287 288 288 289 289 289 289 289 290 285 284 285 291 291 289 291 291 289 289 289 289 288 287 290 294 295 295 295 295 296 295 294 294 293 293 292 292 291 291 290 290 289 288 287 287 286 285 285 285 284 284 285 284 284 284 284 284 283 283 283 282 282 281 281 281 280 279 279 278 279 280 279 280
283 285 281 283 279 277 277 281 281 279 276 279 291 293 291 289 288 286 286 288 290 290 289 291 291 292 289 290 290 292 289 290 292 293 293 293 291 291 293 294 295 295 295 295 295 295 294 293 292 292 292 291 290 289 288 287 287 287 286 285 285 284 284 284 284 284 284 283 283 283 283 282 282 281 281 280 280 280 278 278 278 277 278 278 279 279
284 283 281 278 279 275 276 281 278 275 278 289 291 291 292 292 291 290 291 291 291 291 291 290 290 290 289 291 292 293 292 292 292 292 292 291 291 294 294 294 294 294 295 295 294 293 293 293 292 291 290 290 289 288 287 286 286 286 285 285 284 284 284 284 284 283 283 283 282 282 282 281 281 281 280 279 278 277 277 278 277 277 277 278 279 278
282 283 278 280 276 275 274 276 272 275 284 285 287 290 291 291 292 289 288 290 290 290 291 290 292 293 293 291 290 290 290 290 289 289 290 291 291 294 293 294 295 295 295 295 295 295 294 293 292 291 290 289 288 287 287 286 286 286 285 285 284 284 284 284 283 283 282 282 282 281 281 281 280 280 278 278 277 278 278 278 277 277 278 278 277 277
287 284 281 279 278 277 273 277 276 278 282 284 285 288 287 286 284 287 284 288 292 292 292 292 293 294 293 291 290 290 288 289 290 292 290 290 290 291 295 295 296 296 297 296 297 296 296 294 293 291 289 288 287 286 286 286 286 285 284 284 284 283 283 283 282 282 282 281 281 281 280 280 280 279 278 277 277 276 277 277 277 277 277 276 277 277
287 286 281 282 277 276 273 272 272 273 276 281 288 288 292 291 291 291 287 286 292 293 294 294 293 293 293 290 289 289 289 289 288 291 293 288 289 292 293 295 295 296 295 293 291 291 291 290 289 288 288 287 286 286 286 286 285 285 284 283 283 282 282 282 281 281 281 280 280 280 280 279 279 278 277 275 276 275 275 275 275 276 277 276 276 277
286 285 284 284 278 277 273 273 271 274 279 286 284 286 289 291 290 288 285 283 291 291 290 292 292 293 292 289 287 286 288 287 288 292 294 291 290 291 293 292 290 289 291 292 292 291 289 289 288 287 287 286 285 285 286 285 285 284 283 283 282 281 281 280 280 280 280 279 279 279 278 278 277 276 276 276 275 275 274 274 275 276 275 275 276 276
282 279 282 281 279 278 277 276 275 275 281 282 284 284 288 289 292 288 276 279 289 290 291 291 292 292 290 289 289 289 289 287 289 293 289 289 291 290 291 292 287 287 287 287 288 290 288 287 286 286 286 286 286 285 285 285 284 283 282 281 281 280 280 279 279 279 279 278 278 278 277 277 276 275 275 275 274 274 275 276 275 274 274 276 275 273
278 279 280 280 281 281 281 273 274 278 286 282 285 285 286 292 290 281 276 285 286 290 292 292 291 292 292 289 288 289 290 295 293 289 285 286 287 287 285 284 285 286 288 287 287 287 287 287 288 287 287 286 285 285 285 284 283 282 281 280 279 279 279 278 278 278 278 277 277 276 276 275 274 274 274 274 274 275 275 275 276 276 276 273 273 272
276 277 276 277 278 279 278 276 276 277 284 285 285 287 288 289 279 281 287 284 285 285 287 289 291 290 290 289 289 291 294 287 282 285 286 286 285 283 283 283 284 284 284 285 286 286 286 286 285 285 284 285 285 284 284 284 282 280 279 278 278 277 277 277 277 277 277 276 276 275 274 273 274 274 274 274 275 274 274 276 276 275 274 273 273 273
282 280 277 280 278 276 274 276 275 274 283 290 288 285 287 286 284 283 283 284 285 283 284 285 286 288 288 288 289 291 288 284 284 284 284 283 284 284 284 285 285 285 285 285 285 285 286 284 284 284 283 284 284 284 283 282 280 278 277 276 276 275 275 275 276 276 275 275 274 273 272 272 272 274 275 275 275 275 274 275 274 274 273 273 273 272
285 280 276 281 283 278 279 276 278 285 286 290 291 286 285 288 285 284 288 287 285 284 284 284 285 284 285 288 287 286 283 284 284 283 282 283 282 282 283 282 283 283 284 283 284 284 284 283 282 281 281 281 282 282 281 280 278 276 276 274 274 274 274 274 275 274 274 273 272 271 272 272 273 275 275 275 275 274 274 273 273 273 272 272 271 269
286 286 286 282 282 282 281 285 286 282 286 286 289 289 291 293 286 285 286 288 288 287 282 285 287 286 284 286 286 287 284 284 285 283 283 283 282 282 283 282 283 283 283 282 282 281 282 281 280 279 278 279 279 279 278 277 276 275 274 273 273 273 273 273 273 273 272 271 271 271 272 273 274 274 273 273 273 272 272 272 271 270 270 269 268 268
287 287 282 286 284 287 283 286 287 283 283 287 286 286 286 288 285 284 287 288 286 285 286 287 285 285 285 283 287 284 285 284 282 282 281 281 281 281 280 281 281 280 280 280 279 279 279 278 278 278 277 276 276 276 275 275 275 274 273 273 272 272 273 273 272 272 271 271 272 272 273 273 273 272 272 272 272 271 270 270 270 269 269 268 267 266
284 283 284 283 282 285 282 290 286 284 285 284 286 287 285 284 286 284 285 286 287 284 284 285 285 284 285 284 284 284 283 282 283 281 281 282 281 281 281 281 281 280 280 279 278 277 276 276 276 276 275 274 272 273 273 272 272 272 272 271 272 272 273 272 272 271 271 271 271 272 272 272 271 271 271 270 269 269 270 270 269 268 268 266 265 265
284 284 285 283 283 285 286 285 285 285 284 285 286 288 288 287 286 284 283 283 284 283 283 285 284 285 284 285 284 285 283 283 284 283 283 283 283 283 283 282 280 279 277 277 276 275 275 276 276 274 274 273 271 271 271 270 270 270 270 270 271 271 272 271 271 270 270 270 271 271 271 271 271 270 269 269 270 269 268 267 267 266 266 265 265 265
284 287 283 284 286 285 284 282 283 286 287 286 285 283 284 285 284 282 282 282 283 284 284 283 283 284 285 287 284 285 284 283 284 284 284 283 282 282 282 281 280 280 278 276 275 275 276 275 274 273 273 271 270 270 269 269 269 269 269 269 270 271 270 270 270 270 270 270 270 270 270 269 269 269 268 268 267 267 267 266 266 266 265 265 264 264
285 285 282 283 284 284 286 284 283 284 282 286 286 284 283 284 282 283 283 283 283 284 283 284 285 283 282 283 285 286 286 284 283 283 284 283 283 282 281 280 279 278 277 276 276 275 275 274 274 273 272 271 270 269 268 268 267 268 268 268 269 269 269 269 269 269 269 269 269 268 268 268 267 267 267 266 265 265 265 269 272 270 266 265 273 275
286 283 285 285 285 284 286 284 286 285 283 284 285 285 282 282 283 284 284 284 283 282 282 283 284 286 287 285 283 284 284 285 284 283 283 283 282 282 281 280 278 277 277 276 275 274 274 273 272 272 271 270 269 268 267 266 266 266 267 267 268 268 269 269 269 269 268 268 267 268 267 267 266 267 266 265 263 264 263 262 264 272 273 273 272 273
Wind_Speed
4 6 8 10 8 5 4 6 8 9 4 3 3 4 5 5 0 1 0 1 1 2 5 6 8 6 5 8 8 6 4 4 5 6 7 7 7 8 9 9 11 10 12 9 11 10 11 11 10 9 8 8 7 7 8 9 9 10 10 10 11 9 10 9 9 8 8 8 7 5 7 7 7 7 7 7 7 7 7 7 7 7 7 6 6 6
8 8 10 8 9 8 8 6 6 7 5 4 4 5 6 4 4 1 1 1 3 4 3 2 2 7 9 7 8 5 4 9 9 8 8 9 8 8 10 10 11 11 2 4 6 8 8 9 9 8 8 8 10 8 9 11 11 10 9 11 10 9 10 11 11 10 9 9 9 9 10 7 6 7 7 8 6 7 7 8 8 8 7 7 7 7
10 12 9 9 9 7 7 7 6 7 6 3 6 6 5 4 1 1 1 2 2 2 5 2 5 10 10 6 6 5 10 8 10 11 11 11 9 7 8 9 9 4 7 6 10 9 10 10 11 10 9 10 13 12 13 12 10 10 10 10 10 9 10 10 10 10 10 8 7 8 5 8 5 5 6 6 7 7 7 8 8 8 7 7 7 7
8 7 9 8 7 8 5 6 9 6 2 2 3 3 8 5 5 2 2 1 2 1 1 1 1 8 6 5 8 8 9 5 8 11 10 10 12 11 11 11 9 8 8 9 9 11 10 11 11 9 9 10 8 9 8 8 11 10 10 10 10 11 10 10 10 10 9 9 7 6 6 6 7 6 5 6 6 7 7 7 6 6 7 7 8 8
4 2 7 4 8 10 8 5 7 6 7 2 4 3 4 3 3 3 4 1 1 1 2 1 4 7 5 6 6 8 7 5 6 8 8 8 8 10 10 7 8 11 10 9 7 6 8 9 11 12 12 9 10 10 11 11 11 10 12 12 13 12 11 10 9 10 8 7 6 6 3 3 2 1 4 5 6 7 6 5 5 6 5 6 7 6
7 3 5 7 5 7 5 7 7 7 4 1 2 4 4 6 5 3 5 5 2 3 2 2 2 5 4 7 12 9 3 7 7 9 12 13 10 7 7 10 8 7 7 12 12 11 11 12 10 7 6 8 9 10 10 10 11 10 10 9 9 9 9 9 9 10 9 9 9 8 8 7 6 6 6 9 9 7 6 7 3 3 5 4 4 4
7 1 5 10 7 7 6 3 5 8 6 2 4 0 3 7 6 7 5 3 1 3 2 0 8 6 5 3 4 5 5 11 6 7 11 9 9 8 9 8 9 9 7 5 5 6 7 6 7 7 8 9 9 10 6 5 6 6 7 7 8 9 9 9 8 9 9 9 9 11 10 9 10 10 5 2 3 6 4 3 4 3 2 3 4 4
2 4 5 3 5 9 6 5 3 8 7 4 1 3 9 9 8 7 7 4 1 1 1 2 2 3 5 8 5 4 4 6 6 8 9 8 7 7 6 6 6 6 6 8 8 7 8 8 10 12 11 8 9 5 3 5 5 7 8 8 8 7 8 8 9 9 10 11 10 10 9 8 8 8 7 5 4 3 3 3 2 1 0 0 1 3
4 5 5 6 3 5 7 4 2 6 6 3 2 7 7 10 7 6 6 3 1 2 4 2 1 1 4 7 6 1 1 1 5 9 9 9 7 7 8 8 7 6 6 6 5 5 6 8 8 6 7 6 4 5 6 5 5 5 6 7 6 8 7 7 9 10 9 9 10 10 8 8 5 6 6 4 2 4 2 4 3 4 3 4 5 4
2 5 9 9 6 5 3 1 1 7 4 2 3 5 4 5 4 6 3 4 0 2 5 4 1 3 8 6 4 2 0 5 7 9 10 10 10 8 7 5 3 2 3 3 4 3 3 3 2 3 2 3 4 4 5 4 4 4 5 7 8 7 6 7 7 9 7 7 8 8 7 7 5 5 3 5 5 4 4 5 4 4 5 5 6 5
2 2 3 4 8 4 5 1 1 1 2 4 6 7 6 6 3 2 5 3 2 2 6 6 3 3 4 4 7 5 6 7 8 4 5 3 3 4 5 6 5 4 3 2 1 1 1 2 4 4 5 3 2 2 4 5 5 4 5 6 7 6 5 6 7 7 7 6 6 7 6 7 6 5 6 6 5 4 4 5 3 3 2 2 2 2
3 2 1 2 2 3 3 4 5 2 4 7 3 4 6 4 6 4 2 4 2 5 4 1 1 1 6 4 5 7 4 4 6 7 7 5 6 5 5 4 4 4 3 2 2 2 2 2 2 3 4 4 3 3 3 4 4 5 5 6 7 5 6 5 6 6 6 6 5 5 6 6 6 6 6 6 6 4 4 3 2 1 2 3 3 3
2 2 1 5 3 5 4 7 3 3 1 5 7 7 8 1 3 1 1 2 4 5 0 2 0 1 7 8 7 6 7 5 5 6 8 7 5 5 4 5 5 5 4 4 4 4 3 4 4 4 4 3 4 5 5 5 4 4 5 6 8 6 5 5 5 6 5 5 5 6 6 5 6 6 6 6 5 4 5 4 3 2 0 1 2 4
2 2 3 3 3 2 5 10 2 2 1 6 9 7 7 2 1 2 3 1 3 5 3 0 1 2 3 8 12 15 18 10 6 6 5 8 9 7 6 5 4 3 5 5 5 5 5 5 4 4 5 4 4 5 5 5 5 5 5 5 7 6 4 5 5 6 6 5 5 6 7 6 6 6 6 5 6 3 3 3 3 2 2 2 3 4
6 2 7 4 1 1 0 2 11 9 9 8 4 10 8 8 5 4 3 5 8 7 1 3 2 6 5 4 1 8 9 4 4 3 3 2 4 5 4 4 4 3 3 4 4 5 5 5 5 5 4 4 4 5 5 5 5 5 5 6 7 6 4 5 5 6 7 6 6 6 7 7 6 6 6 5 5 6 6 5 6 4 4 5 3 4
9 2 2 2 1 0 7 1 1 5 3 2 4 6 6 7 6 4 5 4 2 1 0 0 5 5 5 2 5 2 1 2 1 1 4 4 3 4 4 5 5 4 4 4 4 3 3 4 4 4 4 4 4 4 4 5 5 5 6 6 6 7 6 7 7 6 7 6 6 6 7 6 6 6 7 6 5 5 6 5 6 5 5 6 5 3
3 4 2 6 2 1 0 1 1 2 7 4 6 5 7 3 8 4 1 0 3 3 6 2 4 6 8 7 9 2 0 2 0 1 2 4 4 3 5 4 4 4 4 4 5 4 4 3 3 4 4 3 3 3 3 4 5 6 7 8 8 7 6 7 6 7 6 7 7 7 7 6 6 6 6 6 5 6 5 6 6 6 5 5 5 5
11 3 1 3 2 0 0 0 1 3 1 6 2 7 2 2 4 5 4 1 1 4 6 3 7 4 1 6 4 1 2 5 3 4 5 3 3 5 5 5 6 5 5 5 4 4 4 4 4 4 3 4 4 4 4 4 4 6 6 7 8 7 8 5 6 6 6 8 7 7 7 7 7 7 6 6 6 6 7 6 6 5 6 5 4 5
8 3 0 1 1 3 1 0 3 1 1 3 6 2 7 3 3 2 3 1 2 2 3 2 3 4 6 7 2 2 5 8 9 7 4 6 6 7 5 5 4 4 4 4 5 5 4 5 4 5 5 4 4 4 4 5 6 6 5 6 7 8 7 7 6 7 7 7 6 6 7 7 7 6 7 6 7 7 7 6 5 5 5 5 5 7
2 6 1 2 1 1 1 2 9 3 2 0 1 2 1 2 2 4 7 4 5 4 0 5 2 5 6 5 7 6 10 11 10 6 10 10 9 8 7 7 7 7 6 5 5 4 4 4 4 5 5 5 5 5 5 6 6 7 7 8 8 7 8 8 9 8 8 7 8 7 7 6 6 6 7 6 7 7 6 5 5 6 6 6 6 6
4 2 5 1 2 1 4 3 8 11 9 0 2 2 0 0 2 3 0 4 4 3 4 2 3 4 7 7 7 11 11 11 9 11 10 9 9 8 8 9 8 7 7 6 5 5 5 4 4 4 4 4 4 4 4 5 7 6 6 7 7 10 9 9 7 8 7 8 8 9 8 7 7 8 7 7 6 7 6 6 7 6 5 6 7 6
3 2 8 2 2 4 5 1 1 4 7 9 11 10 12 7 3 4 7 0 2 2 4 3 8 7 10 3 6 7 6 5 7 9 10 9 8 9 8 7 8 8 6 6 5 5 5 5 5 4 4 4 5 5 6 5 6 6 6 6 7 8 7 9 8 8 8 7 8 8 8 8 7 7 7 8 7 8 7 7 7 5 6 7 4 5
6 3 8 4 5 5 3 2 2 1 0 1 2 6 5 3 4 4 5 5 0 3 3 3 1 7 6 2 2 1 2 2 3 5 8 6 7 8 8 8 6 6 6 6 6 6 6 5 5 6 6 5 6 5 5 5 6 6 6 6 6 9 7 7 8 8 8 9 9 8 8 8 8 7 8 9 7 8 7 6 6 5 7 6 5 4
9 5 6 2 2 2 3 3 3 1 0 0 3 1 5 8 7 7 4 5 6 1 2 1 3 7 3 1 2 3 3 3 3 4 7 5 5 6 7 7 7 5 5 5 5 6 6 5 5 6 6 6 6 5 6 6 5 6 6 6 7 9 9 8 8 8 9 9 9 8 9 9 8 9 8 9 7 8 6 6 6 5 6 5 5 7
4 2 9 4 2 1 3 2 2 1 0 1 2 3 1 1 2 2 3 1 1 6 7 6 9 5 5 1 2 1 2 2 2 1 4 5 5 6 7 6 6 6 7 7 7 7 6 6 6 6 6 6 6 5 6 6 6 6 6 6 8 8 7 8 7 9 8 10 11 9 10 9 8 9 9 8 7 7 6 6 6 6 6 6 7 5
3 6 8 8 9 9 6 10 11 10 7 1 1 2 4 4 5 4 4 1 5 3 5 3 5 8 6 5 4 4 3 4 3 4 3 3 6 8 6 7 7 7 8 7 6 7 8 7 6 6 5 5 5 6 6 6 6 6 6 6 6 9 8 7 7 8 9 9 11 10 10 8 8 9 8 8 7 7 6 6 6 6 5 5 5 4
3 3 5 9 14 14 12 3 3 11 5 8 6 7 6 5 5 5 4 3 7 4 6 7 8 11 7 6 3 5 4 6 5 4 4 3 3 4 5 6 7 8 8 8 8 7 6 6 8 7 6 6 6 6 6 7 7 6 7 7 6 6 8 8 8 8 10 9 10 10 9 8 8 8 7 7 7 6 6 6 5 5 5 4 4 5
3 4 7 9 10 8 5 6 7 13 9 8 8 6 7 8 7 9 9 9 6 4 9 4 8 10 15 9 6 7 7 5 5 5 5 5 6 7 6 4 5 5 5 5 6 8 10 8 7 8 8 8 7 7 6 5 6 7 8 9 7 7 8 7 9 9 9 10 10 9 9 7 7 7 7 6 6 6 6 5 5 5 4 4 5 5
6 8 5 5 9 6 7 9 11 8 9 10 13 12 10 10 8 11 11 13 7 9 14 15 14 14 17 11 10 11 8 7 8 11 8 3 2 3 5 7 8 8 8 9 10 9 9 10 9 9 9 9 9 10 9 8 7 6 5 6 7 7 8 7 9 10 9 9 10 8 8 7 6 6 6 6 6 6 6 5 5 4 4 5 4 4
4 4 5 7 7 3 4 8 8 10 5 5 9 11 12 11 12 14 15 15 14 12 16 18 15 18 17 11 8 9 7 8 4 1 3 5 7 9 8 8 9 9 11 12 11 10 9 9 9 9 9 10 11 11 10 9 8 8 9 8 7 8 6 8 8 10 9 10 9 8 7 7 6 6 6 6 6 5 5 5 5 5 5 4 3 2
4 4 7 4 4 4 6 6 6 9 8 6 6 8 11 12 14 17 17 18 15 14 14 12 8 12 15 7 4 5 5 1 2 5 8 11 9 8 9 10 10 11 12 10 9 10 10 9 9 9 10 11 12 12 11 10 9 8 7 8 8 8 6 7 9 9 10 10 8 8 7 7 7 6 7 5 6 5 5 5 5 4 3 2 2 2
3 1 1 4 7 4 4 7 7 3 2 2 4 7 11 14 15 14 15 10 7 11 12 10 12 17 16 5 4 8 5 5 6 7 8 6 6 9 10 11 12 13 12 12 11 10 11 11 12 14 14 13 12 12 12 11 10 9 9 8 9 8 6 7 8 10 9 9 8 7 8 7 7 7 6 5 5 5 5 4 4 3 2 2 3 3
6 7 6 5 7 7 5 8 4 3 1 4 10 17 22 17 15 10 12 11 14 15 13 13 20 18 1 4 10 10 5 6 7 7 6 6 7 12 13 13 14 13 13 12 12 14 14 15 16 15 13 12 12 12 11 12 12 11 10 10 8 8 8 8 9 9 9 7 8 7 7 7 8 7 6 5 4 4 4 4 4 3 3 4 2 3
4 8 6 4 7 2 2 5 4 4 8 15 21 13 9 13 14 10 10 16 17 13 13 16 16 9 4 7 10 14 7 8 11 11 10 11 10 8 8 8 10 12 11 12 13 14 13 10 10 11 11 11 10 9 10 9 11 10 9 10 9 9 8 9 8 9 9 7 7 7 6 6 7 7 6 4 4 3 4 4 4 3 2 2 4 4
9 6 7 4 4 3 5 9 5 11 15 17 6 7 11 10 9 19 22 19 14 13 12 13 14 12 6 10 11 12 7 7 7 10 10 8 6 10 13 14 12 12 14 13 10 9 12 15 12 10 11 12 13 11 11 9 8 10 10 10 11 8 10 8 10 8 8 8 7 7 6 7 7 7 5 4 3 3 4 4 3 4 3 4 4 4
8 9 4 1 4 5 3 7 6 13 10 2 1 7 7 8 14 8 8 8 7 7 10 15 20 19 12 9 7 5 5 6 5 6 8 7 7 9 10 12 14 12 11 13 16 16 15 16 19 19 16 11 12 11 11 11 10 11 11 8 10 9 8 9 9 9 7 8 7 7 6 7 7 6 4 4 3 3 4 4 4 4 3 3 3 2
13 5 5 5 2 7 5 8 8 4 8 6 6 10 8 9 6 10 12 16 14 12 15 18 21 17 10 6 6 6 4 1 3 9 6 9 8 8 12 14 14 15 15 15 17 18 16 14 12 12 12 12 12 13 12 11 11 11 12 11 9 10 9 9 10 9 8 8 6 6 6 7 7 6 4 3 3 4 4 4 4 4 3 3 3 4
8 11 4 8 3 7 6 1 1 2 10 14 13 4 7 6 9 9 8 14 12 15 17 16 17 16 11 5 6 5 1 3 10 12 9 7 10 12 12 12 11 10 9 5 3 5 8 9 9 10 14 14 12 12 12 12 12 12 13 12 10 11 10 9 10 8 8 8 6 6 6 6 6 5 4 3 4 3 3 3 3 3 3 3 3 4
0 3 7 10 3 5 3 6 5 9 14 11 6 5 5 9 12 9 6 13 18 12 6 10 15 16 11 6 5 4 6 7 12 13 8 9 10 11 13 11 4 4 5 9 12 13 12 13 15 14 13 14 15 13 13 13 14 14 13 12 11 10 11 10 9 9 9 8 6 6 6 6 5 5 4 4 3 3 4 3 3 1 3 2 1 2
6 2 5 6 5 6 7 6 7 4 11 5 7 5 9 9 12 9 4 12 10 14 13 13 15 14 7 8 9 9 10 11 13 13 2 6 9 7 7 7 5 3 3 5 5 10 13 13 14 13 15 17 17 15 15 14 13 12 13 11 10 11 10 10 9 7 7 7 7 6 5 5 5 5 4 4 4 3 3 2 2 3 2 2 2 2
3 0 5 12 10 7 8 4 2 6 8 4 8 5 7 15 12 10 14 13 5 10 12 12 10 14 10 8 9 10 11 14 8 3 1 1 3 1 2 2 2 4 8 8 10 11 12 13 17 19 19 14 14 14 13 12 12 12 11 12 11 10 9 8 8 8 8 7 7 6 5 4 4 6 4 4 3 3 3 2 2 2 3 3 4 3
1 3 1 2 6 9 7 7 8 6 10 8 1 11 9 8 7 18 6 3 7 4 5 7 12 9 8 10 10 11 12 5 1 1 1 1 3 3 4 5 7 7 5 5 10 12 11 10 8 9 8 9 14 14 13 12 13 12 12 11 10 9 7 8 8 8 8 8 6 5 5 5 4 4 5 3 4 3 3 3 4 3 3 3 2 3
10 7 7 9 4 2 2 5 2 9 6 12 10 3 3 10 7 5 3 2 1 3 5 5 6 8 6 8 10 12 4 0 1 2 2 2 4 5 6 7 8 10 11 11 9 6 12 11 11 11 11 10 11 11 10 12 13 12 10 11 10 8 8 7 8 8 7 7 6 6 5 5 5 5 4 3 2 4 5 4 3 3 2 2 3 2
9 7 3 7 7 9 9 9 11 11 2 8 14 10 6 10 3 3 6 4 3 3 4 4 5 5 6 8 8 6 4 4 1 1 2 1 2 3 3 3 4 5 5 4 6 10 10 11 10 10 7 8 8 8 9 13 14 12 12 11 8 8 7 8 7 7 7 6 6 6 5 4 5 5 3 3 3 4 4 3 1 1 1 2 1 2
10 12 10 11 4 6 9 12 11 3 5 2 0 1 10 14 5 7 6 6 6 5 4 4 5 4 6 7 6 7 4 6 4 4 5 4 4 4 4 4 5 7 8 10 10 8 9 14 15 12 9 8 9 8 9 8 15 14 14 9 8 9 10 9 8 8 7 7 6 6 6 5 5 4 3 4 3 3 2 0 1 1 2 0 2 4
5 7 3 5 6 6 5 7 4 1 0 1 1 0 0 3 0 4 6 5 2 4 7 4 4 4 2 3 7 2 2 2 4 3 2 3 4 3 3 4 4 4 5 6 7 7 7 9 10 13 13 8 7 9 8 7 11 18 12 10 9 9 9 10 10 9 8 7 7 7 6 7 5 4 4 4 3 2 1 2 1 1 0 2 3 3
2 4 4 5 1 7 10 14 7 4 1 5 4 0 1 1 2 2 3 3 4 4 4 1 5 3 4 4 3 5 4 5 6 4 4 5 6 6 7 8 7 8 10 10 8 10 10 10 11 11 11 11 5 6 6 7 3 6 11 11 9 9 9 10 10 10 9 8 7 7 6 5 4 4 4 3 2 1 1 0 0 1 1 2 3 3
3 3 6 5 6 12 12 3 2 4 2 2 4 3 2 2 1 0 0 2 3 3 3 3 3 4 4 4 5 6 6 7 9 8 8 8 8 9 9 9 9 8 5 6 8 9 9 9 11 11 10 9 6 5 6 5 6 6 8 8 9 9 10 10 10 11 10 9 7 5 5 6 7 6 4 3 2 2 1 1 0 1 1 2 2 4
4 8 7 7 8 4 3 3 1 6 2 2 3 4 1 2 3 2 3 3 2 3 2 2 1 2 5 5 6 6 7 6 6 9 9 7 7 7 8 8 8 9 10 12 11 12 14 13 12 12 12 10 7 7 6 6 6 7 7 9 9 10 11 10 9 8 10 8 7 7 5 5 5 5 4 4 3 2 1 1 1 2 2 1 1 0
6 9 2 5 7 8 11 6 5 3 5 6 6 5 1 1 5 4 3 3 2 3 2 3 2 1 2 3 6 8 8 8 7 8 9 9 9 8 7 8 8 9 8 7 8 9 10 12 15 15 13 10 9 9 9 8 7 6 6 7 7 8 11 11 10 9 7 6 7 6 6 6 5 5 5 4 4 3 2 5 6 4 2 2 6 6
8 6 7 9 10 10 3 5 6 4 3 1 2 0 1 2 6 6 4 4 2 2 4 4 2 1 0 1 2 4 4 7 9 7 6 7 10 10 12 13 13 11 11 11 12 10 11 10 10 11 12 12 10 9 10 9 8 8 7 7 7 8 9 10 9 8 7 8 7 6 6 7 7 5 5 4 4 4 5 4 7 9 9 8 8 6
Wind_Direction
138 201 206 208 215 218 218 176 176 220 209 186 162 178 199 193 294 304 297 294 35 121 226 205 228 244 251 234 244 227 204 225 243 231 225 223 198 199 202 201 205 205 211 204 201 195 190 191 191 187 181 183 185 185 183 182 183 181 174 167 178 180 172 169 173 178 178 185 191 200 204 208 201 191 190 196 198 199 201 200 201 203 206 204 202 207
168 200 218 207 202 204 208 197 185 231 236 224 200 178 238 168 206 259 249 332 342 150 254 221 247 259 246 246 247 241 182 218 212 219 228 223 215 203 198 207 208 212 245 198 212 208 192 190 187 180 180 173 179 196 185 189 192 188 176 179 179 173 179 179 179 180 184 189 192 190 199 192 186 190 192 199 200 199 200 201 202 205 204 201 201 202
199 209 208 210 203 204 206 201 208 207 242 212 193 206 202 242 192 269 345 358 324 89 250 355 214 251 250 248 264 205 201 216 206 200 205 205 216 215 211 210 211 203 204 197 203 194 194 191 186 180 185 187 189 187 188 191 186 189 185 188 180 180 179 185 179 176 189 188 188 185 185 185 193 210 198 191 195 196 198 200 203 203 201 197 201 200
194 225 207 205 202 216 239 213 205 219 218 151 197 141 211 202 132 245 287 353 2 115 225 52 301 277 288 249 248 240 203 219 211 210 216 200 200 209 211 204 196 204 196 198 195 193 194 188 187 184 187 190 184 182 191 185 187 189 190 189 185 186 182 182 184 181 184 181 179 184 171 187 185 190 195 201 201 202 204 214 201 194 188 191 196 196
196 163 197 192 201 211 220 225 208 188 229 270 145 155 167 161 228 150 212 91 328 15 81 29 348 301 251 261 278 265 215 224 230 224 232 238 225 212 216 213 197 195 193 194 200 198 182 187 191 191 194 183 184 187 188 187 187 189 190 189 187 187 188 184 179 178 163 155 165 174 163 154 140 33 169 181 215 206 204 204 196 203 183 181 186 190
214 206 166 195 214 215 199 216 210 151 198 315 234 172 185 172 133 87 105 101 32 319 297 139 352 294 276 246 232 243 277 240 224 200 223 224 224 234 227 218 221 223 195 183 189 191 189 187 193 200 191 188 197 194 196 193 192 188 189 184 183 186 187 184 178 174 166 171 169 167 167 177 189 193 181 196 198 199 199 201 188 167 178 185 190 187
187 161 156 199 190 200 188 176 213 159 182 147 254 253 160 147 133 131 134 93 147 184 297 52 180 264 326 303 242 251 212 232 240 216 229 222 224 216 216 211 207 203 207 238 208 183 181 200 189 201 198 201 199 208 194 191 197 196 188 187 180 181 185 183 177 173 168 174 180 184 187 185 189 187 212 198 183 183 201 158 156 169 158 153 163 195
123 160 166 176 171 185 178 193 226 155 139 218 253 105 118 115 130 169 143 139 188 223 337 36 125 196 292 286 267 257 199 246 253 242 240 233 223 216 214 209 205 201 194 181 187 188 197 192 192 198 206 201 207 193 173 196 197 191 190 186 186 178 177 184 178 176 177 178 184 186 188 181 184 184 182 181 185 185 145 148 189 220 309 40 205 199
148 162 174 174 157 152 190 203 201 144 136 214 191 138 147 154 164 142 131 132 140 123 271 312 301 261 256 268 298 315 164 265 242 233 234 233 227 221 215 212 214 211 202 187 190 192 189 196 209 214 211 219 201 188 193 196 194 191 186 183 180 181 175 181 180 179 183 179 181 182 177 178 184 164 175 168 121 138 137 113 46 72 59 61 59 59
307 175 185 164 150 193 213 221 230 162 125 259 143 88 76 70 79 125 100 102 35 95 255 251 185 196 281 270 325 346 275 261 243 236 235 226 221 217 219 225 185 155 135 160 185 199 205 207 186 199 162 153 201 202 189 181 160 164 166 174 176 184 179 173 176 177 175 170 161 165 170 168 169 156 125 96 92 90 96 97 74 56 49 35 43 34
265 340 231 109 182 174 144 124 150 140 148 125 82 72 32 36 40 21 69 94 73 286 253 237 265 147 290 271 213 189 219 198 229 273 275 263 232 221 201 170 165 157 152 157 136 101 108 156 138 126 132 145 109 129 147 161 159 151 153 161 169 178 166 162 165 166 167 157 156 155 156 158 160 159 138 106 91 89 77 91 61 63 58 53 45 45
2 350 14 293 55 128 118 83 5 91 117 120 102 118 74 354 16 24 347 38 150 267 260 257 187 159 195 292 283 243 275 227 194 222 228 224 199 180 173 176 173 165 176 182 138 150 132 112 95 109 134 154 158 129 157 174 165 158 157 154 154 164 163 159 155 153 153 148 148 142 148 151 149 144 138 133 136 128 118 110 99 31 27 344 348 350
22 343 288 339 249 139 128 93 355 23 23 82 96 101 124 216 37 317 6 261 233 200 257 349 151 344 250 230 260 285 274 281 235 202 216 197 192 193 180 172 171 173 167 167 180 175 186 184 182 169 175 164 170 180 183 190 183 179 167 165 156 175 170 158 148 147 134 124 135 136 133 133 138 128 129 136 130 145 133 136 118 87 170 355 353 351
287 280 333 313 5 241 156 140 175 116 207 108 143 143 126 105 72 197 266 235 311 290 272 237 315 258 249 282 245 248 254 237 227 241 193 176 182 184 180 177 156 158 169 181 181 186 194 201 199 188 176 182 183 186 186 186 179 177 167 164 156 166 164 133 125 129 117 109 117 123 124 121 119 118 117 127 130 128 108 124 119 132 149 131 121 96
132 271 248 157 185 143 2 170 174 165 166 191 147 151 170 145 152 195 187 195 212 207 284 279 86 232 134 241 254 241 275 299 212 237 215 185 174 170 171 158 151 138 157 158 161 178 190 195 181 176 176 179 184 184 183 182 174 159 156 147 139 127 125 120 124 122 116 111 107 109 112 108 107 113 104 80 76 100 100 89 101 107 118 121 122 103
184 157 290 319 269 272 178 261 88 100 101 231 159 93 115 204 145 151 202 156 174 175 35 275 209 186 175 261 284 266 326 52 26 84 110 136 139 134 136 162 172 170 158 151 136 132 139 150 148 142 152 161 166 174 176 173 160 149 145 133 127 125 122 120 119 119 118 113 106 97 93 92 88 83 82 85 87 91 106 113 107 103 94 99 102 86
81 226 342 315 40 37 225 316 331 150 170 223 117 185 207 161 104 105 63 151 113 56 252 179 317 294 296 312 277 239 93 250 334 235 138 159 175 155 180 191 191 185 168 160 147 148 137 109 101 122 128 114 110 100 120 158 155 141 136 130 124 119 114 116 118 116 108 104 92 81 85 83 86 98 113 118 104 98 82 85 85 89 84 70 65 67
157 194 333 48 183 317 213 158 66 39 156 95 147 223 186 128 123 134 198 351 66 164 259 113 209 288 36 267 334 24 225 250 272 240 227 228 205 189 210 200 194 186 184 174 161 155 146 135 125 109 98 115 116 114 94 105 129 131 133 133 128 127 126 120 113 108 107 106 105 103 101 99 108 113 113 109 103 91 87 75 79 78 70 71 74 72
115 75 299 285 231 276 356 238 43 345 72 143 192 199 125 233 237 282 107 227 211 247 262 270 245 256 185 235 346 259 219 241 237 229 231 228 215 213 211 211 203 176 150 159 158 150 145 139 134 125 124 117 105 100 101 103 110 111 114 121 127 130 128 129 121 114 108 111 111 111 108 109 103 99 95 90 89 87 88 88 88 88 94 73 56 60
97 134 274 328 118 259 10 124 187 198 325 12 65 79 135 109 177 141 200 173 119 247 98 294 91 234 213 221 195 226 214 223 225 202 224 218 205 200 199 190 183 179 176 172 166 161 150 142 137 136 133 126 122 112 106 108 107 109 117 115 112 107 113 113 115 116 111 106 105 101 94 86 91 91 95 95 96 93 96 98 89 83 73 68 64 63
177 117 158 254 294 112 187 199 203 168 153 241 78 187 237 13 220 118 83 142 165 176 182 207 309 276 257 217 193 219 217 218 204 207 217 220 214 205 196 186 184 184 180 176 164 153 142 132 125 123 120 116 104 99 99 106 112 116 111 113 120 122 117 110 111 106 107 105 103 102 101 101 98 96 95 94 97 96 87 80 77 77 82 71 61 68
108 100 144 150 100 225 242 276 209 184 196 176 171 185 180 147 126 152 255 24 115 153 237 163 247 267 271 199 216 237 240 230 224 204 212 221 210 200 198 196 182 184 189 169 159 146 138 130 128 114 99 99 100 101 102 106 108 110 112 118 116 109 112 117 114 114 114 106 105 106 109 103 97 101 100 96 87 84 81 75 75 78 74 79 66 73
142 118 105 152 213 188 246 304 265 308 235 169 152 221 176 159 110 120 193 250 341 246 117 153 193 271 242 231 232 235 241 248 262 210 226 220 208 200 198 189 193 183 169 163 151 147 145 146 144 137 130 125 120 117 111 106 109 115 117 115 117 116 116 116 119 116 114 112 111 110 108 106 103 102 96 91 86 83 79 77 74 71 79 73 67 58
90 112 88 19 39 307 312 284 301 279 37 314 296 160 144 192 193 185 165 186 153 217 193 264 245 251 287 254 255 260 253 270 272 203 213 210 201 198 183 181 178 154 142 143 143 145 148 147 138 129 127 125 125 123 117 116 111 111 111 118 119 118 122 120 119 118 115 113 109 112 107 102 104 96 93 87 86 86 80 79 73 70 77 75 67 60
122 255 115 123 61 358 337 348 340 302 107 188 199 203 167 68 83 170 111 125 152 215 172 155 234 269 268 293 291 313 327 334 304 290 178 176 204 192 182 179 171 158 150 155 155 151 145 142 146 147 143 139 132 123 122 121 122 119 121 120 120 119 119 117 121 119 119 118 112 106 102 99 97 95 91 92 89 87 84 79 80 70 71 69 62 56
115 169 137 143 158 166 189 199 203 199 196 236 228 127 170 155 161 129 228 211 207 274 142 184 252 245 271 323 336 316 318 308 277 264 282 223 192 184 182 178 170 163 166 156 148 148 157 161 154 146 145 137 133 132 127 124 123 122 117 119 124 127 124 123 121 122 119 117 110 106 100 101 97 97 99 99 92 90 87 80 73 74 64 75 79 65
140 165 178 169 179 191 197 128 93 119 127 185 209 169 190 190 182 158 114 176 205 216 197 227 224 262 266 270 299 284 273 236 257 270 254 236 231 216 187 176 173 170 165 165 165 163 152 159 162 153 144 141 137 134 133 133 132 130 127 123 124 125 125 130 124 122 114 110 107 106 103 103 103 103 101 96 94 89 81 79 81 77 74 71 83 69
105 178 214 188 199 194 137 147 179 137 167 198 177 203 191 182 175 172 187 221 177 200 261 242 236 244 250 238 234 255 260 260 254 249 250 245 215 195 186 164 147 148 155 157 167 173 174 166 159 155 150 142 140 134 130 132 139 142 141 136 135 131 128 128 123 118 113 111 106 106 108 106 105 99 96 94 92 90 89 84 77 74 69 66 58 55
149 196 224 174 220 176 146 146 166 156 172 184 192 190 190 190 174 184 212 222 177 195 226 231 224 237 248 233 214 218 211 213 221 222 216 188 147 157 159 170 175 177 176 180 188 179 173 173 167 159 153 149 145 144 145 143 140 133 121 124 131 129 129 132 121 117 115 112 109 111 114 108 100 97 95 97 94 88 83 79 75 68 61 56 50 42
136 223 184 180 208 160 185 160 168 165 178 168 188 196 196 181 193 201 215 220 205 214 225 233 230 235 242 243 205 224 218 219 234 132 118 159 194 187 181 184 186 186 189 194 190 184 179 173 166 162 156 155 155 153 153 151 151 148 142 139 134 126 134 125 121 119 116 112 113 114 109 106 104 103 103 94 90 89 85 79 69 65 57 47 42 33
143 257 137 144 167 211 217 192 174 180 171 200 210 200 193 191 199 206 214 223 221 236 241 253 270 273 259 221 212 255 239 185 67 153 190 207 193 179 184 192 194 197 202 197 186 185 180 171 167 162 163 166 164 163 158 155 150 143 136 138 135 134 140 129 123 117 118 116 117 116 113 109 106 103 93 94 91 85 80 73 71 68 65 55 43 44
107 202 76 103 177 257 214 179 189 97 113 167 226 208 202 196 205 213 216 216 199 221 238 253 258 249 251 105 205 231 199 165 196 214 222 223 188 183 189 198 201 205 202 197 191 181 178 176 176 177 175 172 169 165 160 155 152 146 147 144 138 137 133 126 121 121 117 120 122 118 117 113 109 97 91 86 84 85 84 84 86 83 85 74 43 17
167 140 143 155 173 227 223 176 138 75 38 270 238 219 206 202 203 208 219 213 205 202 218 222 235 242 256 152 240 246 158 201 210 221 230 237 213 195 195 199 206 208 203 194 189 190 188 186 185 180 174 171 170 165 165 155 151 156 153 142 142 132 129 126 123 120 118 121 119 119 114 114 107 102 97 90 92 91 92 101 96 78 56 37 18 28
121 138 163 156 174 225 123 109 93 89 216 228 230 212 179 198 198 200 219 220 222 197 217 222 241 251 171 203 224 251 179 200 209 224 207 202 202 209 222 220 216 211 205 200 197 192 189 178 180 183 176 168 162 158 154 159 149 146 142 135 132 129 130 126 122 120 121 117 115 113 109 109 106 103 103 103 99 101 101 95 81 62 53 45 31 35
157 157 169 161 174 187 127 103 109 209 228 237 41 103 190 201 178 207 221 220 222 219 238 259 263 260 192 205 217 238 229 222 230 223 235 237 196 189 198 209 216 211 206 202 194 188 187 185 176 163 164 168 163 156 150 148 148 140 134 137 132 135 130 127 124 120 123 119 116 110 109 107 103 103 103 102 105 105 88 78 71 56 36 44 34 24
160 156 139 117 126 59 110 147 183 222 240 6 182 208 189 187 209 206 265 266 244 209 217 242 247 246 232 223 239 250 248 239 261 262 251 242 200 196 196 209 216 208 206 201 196 196 183 179 179 177 173 156 151 154 154 150 150 140 137 134 133 133 131 129 125 124 123 118 119 119 119 115 110 106 106 107 108 96 80 72 62 49 29 38 25 11
157 122 142 197 182 174 187 189 213 340 325 272 253 222 156 187 152 182 229 249 227 210 205 225 240 247 249 233 230 247 262 308 271 267 240 216 214 215 204 213 208 208 209 208 198 196 189 178 165 158 146 152 154 152 153 151 148 140 136 135 137 133 134 131 130 132 129 124 124 123 121 118 117 117 116 125 108 85 73 62 43 31 37 39 21 10
160 159 219 149 241 123 127 107 347 273 254 245 230 56 154 162 164 174 184 258 243 222 217 223 240 248 242 211 209 219 121 246 266 260 242 220 211 209 224 228 224 219 216 189 121 118 135 140 130 138 148 148 152 153 149 152 148 144 141 141 143 139 138 137 136 137 132 129 129 124 119 115 119 121 120 112 90 81 71 60 56 51 32 37 2 355
4 114 156 170 188 112 127 161 193 207 236 241 102 165 172 143 129 115 176 247 252 214 198 201 233 242 234 192 210 150 173 232 249 249 237 207 215 213 216 230 241 211 174 170 167 156 154 154 152 149 145 148 154 162 157 155 151 148 147 148 148 144 141 142 140 142 138 132 127 121 115 112 111 113 113 100 86 83 66 60 59 48 36 15 353 319
106 127 121 173 197 200 176 194 222 209 249 241 173 181 175 139 116 109 153 253 262 112 192 200 217 234 216 193 180 175 190 231 246 254 216 197 210 204 201 216 186 152 142 138 143 151 143 134 131 147 158 165 165 157 157 155 155 152 147 148 144 143 145 147 143 135 123 120 117 115 108 109 106 104 102 94 85 67 68 66 53 32 31 356 10 330
116 136 185 198 200 198 166 239 299 280 261 180 189 184 151 145 128 145 207 232 170 171 188 199 199 220 210 195 167 205 218 222 241 266 240 152 99 87 40 77 136 153 152 148 142 139 145 158 161 167 169 162 153 155 156 155 149 149 148 144 145 149 145 138 130 125 122 115 112 107 104 96 100 100 88 93 88 81 60 63 56 27 30 6 346 334
248 118 341 111 194 200 196 186 228 256 238 170 248 152 155 108 184 205 217 143 157 209 229 169 200 214 206 184 197 212 230 223 143 81 88 135 140 130 114 113 99 78 66 101 138 142 144 146 139 135 139 151 155 155 157 155 150 146 145 144 145 142 134 130 126 122 119 117 114 110 101 99 93 89 89 75 83 81 77 48 42 24 15 346 319 288
179 153 188 191 191 62 111 199 205 250 260 137 126 82 214 183 230 191 195 244 201 196 169 227 187 224 178 210 210 219 225 26 192 173 168 141 145 152 151 151 145 147 145 139 142 154 145 143 148 152 149 150 154 154 155 149 144 143 143 141 144 136 133 126 125 121 120 120 116 111 107 100 92 85 80 75 93 99 71 49 41 6 337 288 272 272
174 158 201 217 185 179 181 192 211 223 143 176 142 182 200 213 187 164 135 199 248 193 194 182 223 204 190 192 208 221 204 171 254 211 119 88 95 114 102 112 115 121 124 116 136 146 142 133 135 133 133 139 144 147 149 151 144 146 143 146 142 133 128 125 124 123 123 123 119 115 108 101 92 84 76 97 69 69 86 44 34 295 246 251 263 6
198 198 171 190 176 171 196 213 226 219 175 228 223 190 193 197 172 174 161 174 176 238 195 157 197 203 188 180 183 179 177 220 191 172 163 182 156 157 161 157 159 155 151 149 149 147 148 150 148 139 133 139 140 143 145 153 146 146 148 154 144 146 140 137 134 133 132 128 125 118 118 103 97 94 89 71 81 92 102 128 212 226 247 193 27 39
207 190 122 114 222 223 271 229 214 85 67 240 259 188 271 179 24 128 150 135 241 184 168 168 188 191 181 171 135 200 201 167 143 152 107 133 142 132 112 114 105 114 121 124 129 139 132 128 132 140 139 137 143 143 147 154 157 152 160 147 149 145 142 140 139 136 135 130 126 127 123 116 111 101 87 74 85 119 166 182 210 194 3 55 47 42
244 153 135 179 216 164 239 233 207 218 234 220 206 203 345 114 181 151 127 158 162 160 156 189 163 179 171 143 131 156 156 150 142 150 147 146 156 166 163 158 164 159 159 153 150 134 133 140 141 146 145 140 134 131 132 139 133 135 140 148 146 146 144 143 140 128 125 131 133 128 130 128 134 121 109 99 111 106 108 50 69 70 58 75 49 26
249 179 172 187 166 190 234 213 243 213 195 193 166 150 189 197 238 314 310 175 154 170 153 186 154 144 144 155 167 148 170 171 158 171 174 180 177 174 173 169 159 149 140 135 133 138 133 144 148 148 147 143 138 127 126 126 131 135 136 135 141 141 140 137 144 140 142 134 132 120 138 143 130 129 125 130 129 137 116 6 136 97 65 48 14 37
156 129 213 183 202 261 315 32 57 79 89 234 255 247 213 191 163 78 67 79 92 107 74 44 45 201 181 190 158 138 144 201 185 175 174 179 173 175 177 170 166 158 151 150 161 158 161 157 154 158 154 155 151 142 137 134 132 134 133 125 140 147 142 140 140 135 132 131 134 143 141 128 129 134 130 134 118 97 133 136 347 15 359 311 163 157
106 192 183 121 217 226 219 213 122 198 242 249 241 230 259 200 137 118 88 88 87 108 109 102 32 20 174 175 169 160 168 185 191 170 179 182 183 172 160 162 163 156 159 156 150 162 158 166 161 161 160 159 157 152 147 143 134 130 135 145 148 149 144 142 138 137 135 138 144 137 132 133 133 135 133 129 132 127 38 18 41 40 56 343 355 5
177 189 146 190 203 229 220 203 186 144 124 238 203 251 245 180 140 138 161 169 209 209 159 124 106 23 188 233 201 171 177 175 188 180 172 186 191 183 173 163 162 170 169 164 158 169 170 167 168 159 161 161 159 157 154 151 154 151 153 155 159 156 151 146 141 143 148 155 149 143 139 140 135 140 130 122 102 90 84 47 16 32 50 36 14 4